ARIANE 5 R/B, 54745

Orbit data source: Space-Track

ARIANE 5 R/B, 54745 is space debris in HEO originally from a launch on Tue, 13 Dec 2022 UTC launched from the French Guiana (FRGUI). Debris objects in space refer to the collection of defunct objects orbiting the Earth. Examples of debris include non-operational satellites, rocket bodies, and fragments generated from explosions, collisions, or faulty payload assembly.

Loading next visibility...
Identifier
54745, 2022-170E
Orbit
HEO
Last TLE update
22 hours ago
Origin
Manufacturer
ArianeGroup
Mission
Spacecraft
Bus & Motor
ESC-A, Unknown motor
Mass
~5,000 kg wet, ~5,000 kg dry
Launch date (UTC)
2022-12-13 (3 years ago)
Launch vehicle
Unknown
Launch site
French Guiana (FRGUI)
Object type
Payload
Rocket body
Debris
Shape & HBR
Cyl + 1 Nozzle, 7 m
Radar Cross Section
41.627 m², Large (>1 m²)

Expand to show TLE details & history

TLE from 22 hours ago
0 ARIANE 5 R/B
1 54745U 22170E   25181.32561271  .00073763 -69053-7  17233-2 0  9996
2 54745   5.8559 144.3193 6955999 315.1648   6.2573  2.75175484 23072
Epoch: 2025-06-30T07:48Z
TLE epoch observation values (Epoch: 2025-06-30T07:48:52.938Z)
Latitude
-0.00027°
Longitude
108.3432°
Altitude
1,034.387 km
Speed
9.434 km/s
True Right ascension
09h 36m 48s
True Declination
0° 00' 01"
Sunlit
Object was in daylight at epoch
Visualization orbit readout
Latitude
3.57152°
Longitude
-109.56712°
Altitude
29,612.402 km
Speed
1.901 km/s
Apparent Right ascension
19h 17m 59s
Apparent Declination
-3° 20' 18"
Sunlit
Object is in daylight
Visualization observer readout
Local Sidereal Time
17:41:05
Azimuth
146.921° SSE
Elevation
41.368°
Doppler factor
1
Orbital elements
Apogee altitude
30,105.271 km
Perigee altitude
171.494 km
Semi-major axis
21,516.519 km
Eccentricity
0.6956
Inclination
5.8559°
RAAN
144.3193°
Arg. of periapsis
315.1648°
True anomaly
Unknown
Mean anomaly
6.2573°
Eccentric anomaly
Unknown
Mean motion
0.68768 °/min
Orbital period
523.5 mins
BSTAR
0.0017233
Loading maneuver chart data...
Loading SW <> Apogee altitude chart data...
Loading historical data...
Loading historical data...
Loading historical data...
Loading historical data...
Loading historical data...
Loading historical data...
Loading historical data...
Other satellites on launch #170 in the year 2022 (2022-12-13 UTC)

ARIANE 5 R/B Visibility forecast

Observer location: undefined°, undefined°

Span
Click to sort rows by Start time (UTC) header in descending order
Start Az.
Max El. time (UTC)
Max El. Az.
Max El.
End time (UTC)
End Az.
186 mins2025-07-01 06:03:22.039Z146.935° SSE2025-07-01 06:29:22.039Z149.717° SSE33.547°2025-07-01 09:09:22.039Z131.879° SE
139 mins2025-07-02 03:44:22.039Z229.968° WSW2025-07-02 06:03:22.039Z184.68° SSW36.453°2025-07-02 06:03:22.039Z184.68° SSW
|